Change the Weather History Date:

Sunday, November 17, 2013

  Actual Average Record
Temperature  
Mean Temperature 77 °F 62 °F  
Max Temperature 82 °F 71 °F 85 °F (2003)
Min Temperature 71 °F 53 °F 27 °F (1970)
Degree Days  
Heating Degree Days 0 5  
Month to date heating degree days 53 58  
Since 1 July heating degree days 58 83  
Cooling Degree Days 12 2  
Month to date cooling degree days 39 48  
Year to date cooling degree days 2947 2957  
Growing Degree Days 22 (Base 50)    
Moisture  
Dew Point 70 °F    
Average Humidity 90    
Maximum Humidity 100    
Minimum Humidity 79    
Precipitation  
Precipitation 0.09 in 0.15 in 1.40 in (1974)
Month to date precipitation 0.30 2.44  
Year to date precipitation 61.58 55.16  
Snow  
Snow 0.00 in - - ()
Month to date snowfall 0.0  
Since 1 July snowfall 0.0  
Since 1 September snowfall 0.0  
Snow Depth 0.00 in    
Sea Level Pressure  
Sea Level Pressure 29.95 in    
Wind  
Wind Speed 8 mph (South)    
Max Wind Speed 15 mph    
Max Gust Speed 21 mph    
Visibility 5 miles    
Events Rain    
T = Trace of Precipitation, MM = Missing Value Source: NWS Daily Summary

Daily Weather History Graph

Daily Weather History Graph

Search for Another Location

Airport or City:

Trip Planner

Search our weather history database for the weather conditions in past years. The results will help you decide how hot, cold, wet, or windy it might be!

Date:

Astronomy

Nov. 17, 2013 Rise Set
Actual Time 6:27 AM CST 5:02 PM CST
Civil Twilight 6:01 AM CST 5:28 PM CST
Nautical Twilight 5:32 AM CST 5:57 PM CST
Astronomical Twilight 5:04 AM CST 6:25 PM CST
Moon 5:19 PM CST (11/17) 6:22 AM CST (11/17)
Length of Visible Light 11h 26m
Length of Day
10h 35m
Full, 100% of the Moon is Illuminated
Nov 17
Full
Nov 25
Last Quarter
Dec 2
New
Dec 9
First Quarter
Dec 17
Full

Hourly Weather History & Observations

Time (CST) Temp. Heat Index Dew Point Humidity Pressure Visibility Wind Dir Wind Speed Gust Speed Precip Events Conditions
12:00 AM 71.6 °F - 69.8 °F 94% 29.97 in 2.5 mi SE 9.2 mph - N/A   Overcast
12:27 AM 71.6 °F - 69.8 °F 94% 29.97 in 5.0 mi SE 6.9 mph - N/A   Overcast
12:53 AM 71.1 °F - 69.1 °F 93% 29.94 in 8.0 mi SE 9.2 mph - N/A   Overcast
1:53 AM 70.0 °F - 69.1 °F 97% 29.94 in 1.8 mi SE 5.8 mph - 0.01 in Rain Light Rain
2:01 AM 69.8 °F - 69.8 °F 100% 29.95 in 3.0 mi ESE 5.8 mph - 0.00 in Rain Light Rain
2:17 AM 71.6 °F - 69.8 °F 94% 29.95 in 3.0 mi SE 5.8 mph - 0.00 in   Overcast
2:24 AM 71.6 °F - 69.8 °F 94% 29.95 in 2.0 mi SE 5.8 mph - 0.01 in   Overcast
2:44 AM 69.8 °F - 69.8 °F 100% 29.94 in 4.0 mi ESE 6.9 mph - 0.01 in   Overcast
2:53 AM 70.0 °F - 69.1 °F 97% 29.93 in 4.0 mi ESE 6.9 mph - 0.01 in   Overcast
3:07 AM 69.8 °F - 68.0 °F 94% 29.94 in 1.8 mi East 4.6 mph - N/A   Overcast
3:19 AM 69.8 °F - 66.2 °F 88% 29.94 in 0.8 mi East 4.6 mph - N/A   Unknown
3:53 AM 64.9 °F - 64.0 °F 97% 29.92 in 0.5 mi East 5.8 mph - N/A   Unknown
4:53 AM 66.9 °F - 66.0 °F 97% 29.92 in 0.5 mi East 4.6 mph - N/A   Unknown
5:16 AM 66.2 °F - 64.4 °F 94% 29.93 in 0.2 mi ESE 6.9 mph - N/A   Unknown
5:27 AM 68.0 °F - 66.2 °F 94% 29.93 in 0.5 mi ESE 6.9 mph - N/A   Unknown
5:42 AM 68.0 °F - 66.2 °F 94% 29.93 in 1.5 mi SE 5.8 mph - N/A   Overcast
5:53 AM 68.0 °F - 66.9 °F 96% 29.91 in 1.8 mi SE 6.9 mph - N/A   Overcast
6:19 AM 69.8 °F - 66.2 °F 88% 29.95 in 2.5 mi SSE 5.8 mph - N/A   Overcast
6:38 AM 68.0 °F - 66.2 °F 94% 29.96 in 1.2 mi South 3.5 mph - N/A   Overcast
6:49 AM 66.2 °F - 66.2 °F 100% 29.96 in 0.2 mi Calm Calm - N/A   Unknown
6:53 AM 66.9 °F - 66.0 °F 97% 29.95 in 0.2 mi Calm Calm - N/A   Unknown
7:53 AM 69.1 °F - 68.0 °F 96% 29.96 in 0.2 mi Calm Calm - N/A   Overcast
8:00 AM 69.8 °F - 69.8 °F 100% 29.98 in 1.0 mi SSE 4.6 mph - N/A   Overcast
8:05 AM 69.8 °F - 69.8 °F 100% 29.98 in 3.0 mi SSE 3.5 mph - N/A   Overcast
8:38 AM 71.6 °F - 71.6 °F 100% 29.99 in 6.0 mi SSE 5.8 mph - N/A   Overcast
8:53 AM 73.0 °F - 71.1 °F 93% 29.97 in 7.0 mi SSE 6.9 mph - N/A   Overcast
9:53 AM 77.0 °F - 72.0 °F 84% 29.98 in 10.0 mi South 6.9 mph - N/A   Mostly Cloudy
10:04 AM 78.8 °F - 73.4 °F 83% 30.00 in 10.0 mi South 9.2 mph - N/A   Mostly Cloudy
10:53 AM 79.0 °F - 73.0 °F 82% 29.96 in 10.0 mi South 9.2 mph - N/A   Overcast
11:43 AM 77.0 °F - 71.6 °F 83% 29.97 in 10.0 mi SSW 10.4 mph - N/A   Overcast
11:53 AM 78.1 °F - 72.0 °F 81% 29.94 in 10.0 mi SSW 10.4 mph - N/A   Mostly Cloudy
12:28 PM 77.0 °F - 71.6 °F 83% 29.94 in 10.0 mi SSW 10.4 mph - 0.00 in Rain Light Rain
12:53 PM 79.0 °F - 72.0 °F 79% 29.91 in 10.0 mi SSW 12.7 mph - 0.00 in   Overcast
1:53 PM 81.0 °F 85.2 °F 72.0 °F 74% 29.89 in 10.0 mi SSW 12.7 mph - N/A   Partly Cloudy
2:34 PM 78.8 °F - 71.6 °F 78% 29.91 in 10.0 mi SSW 13.8 mph - N/A   Mostly Cloudy
2:53 PM 80.1 °F 83.6 °F 71.1 °F 74% 29.89 in 10.0 mi SSW 12.7 mph - N/A   Overcast
3:05 PM 80.6 °F 84.6 °F 71.6 °F 74% 29.90 in 10.0 mi SSW 16.1 mph - N/A   Mostly Cloudy
3:53 PM 80.1 °F 83.6 °F 71.1 °F 74% 29.89 in 10.0 mi SSW 12.7 mph - N/A   Overcast
4:53 PM 78.1 °F - 72.0 °F 81% 29.90 in 10.0 mi SSW 15.0 mph - N/A   Partly Cloudy
5:53 PM 77.0 °F - 72.0 °F 84% 29.92 in 10.0 mi SSW 13.8 mph - N/A   Partly Cloudy
6:16 PM 75.2 °F - 71.6 °F 89% 29.94 in 10.0 mi SSW 10.4 mph - N/A   Mostly Cloudy
6:42 PM 75.2 °F - 71.6 °F 89% 29.96 in 9.0 mi SSW 9.2 mph - N/A   Mostly Cloudy
6:53 PM 77.0 °F - 73.0 °F 88% 29.94 in 9.0 mi SSW 8.1 mph - N/A   Mostly Cloudy
7:08 PM 75.2 °F - 71.6 °F 89% 29.96 in 9.0 mi SSW 10.4 mph - N/A   Overcast
7:53 PM 75.0 °F - 72.0 °F 90% 29.96 in 9.0 mi SSW 9.2 mph - N/A   Overcast
8:17 PM 75.2 °F - 71.6 °F 89% 29.98 in 8.0 mi SSW 8.1 mph - N/A   Overcast
8:53 PM 73.9 °F - 72.0 °F 93% 29.97 in 5.0 mi SSW 8.1 mph - N/A   Overcast
9:53 PM 75.0 °F - 73.9 °F 96% 29.97 in 5.0 mi SSW 6.9 mph - N/A   Overcast
10:12 PM 73.4 °F - 71.6 °F 94% 29.99 in 2.0 mi SW 9.2 mph - N/A   Overcast
10:21 PM 73.4 °F - 71.6 °F 94% 29.99 in 1.8 mi SSW 8.1 mph - N/A   Overcast
10:31 PM 73.4 °F - 71.6 °F 94% 29.99 in 2.0 mi SSW 8.1 mph - N/A   Overcast
10:51 PM 75.2 °F - 73.4 °F 94% 29.99 in 3.0 mi SSW 8.1 mph - N/A   Overcast
10:53 PM 75.0 °F - 73.9 °F 96% 29.97 in 2.5 mi South 8.1 mph - N/A   Overcast
11:05 PM 73.4 °F - 73.4 °F 100% 29.99 in 1.0 mi SSW 9.2 mph - N/A   Overcast
11:25 PM 75.2 °F - 73.4 °F 94% 29.98 in 2.0 mi SSW 9.2 mph - N/A   Overcast
11:34 PM 75.2 °F - 73.4 °F 94% 29.97 in 1.2 mi SSW 6.9 mph - N/A   Overcast
11:53 PM 73.9 °F - 73.0 °F 97% 29.96 in 0.5 mi SSW 8.1 mph - N/A   Overcast